Voltar ao catálogo

STARLINK-4187

AtivoComunicaçõesVLEO
NORAD 52850·PAYLOAD·🇺🇸 United States

Lançado Jun 17, 2022 de Cape Canaveral Space Force Station

Loading…

Próximas Passagens (próximas 24 horas)

TLE

AtualizadoSource: CelesTrak SupGP

Época: Sep 15, 2026, 02:31 UTC

1 52850C 22062W   26258.10534722 -.00026900  00000+0 -86498-3 0  2583
2 52850  53.1565 254.0031 0001338  86.3663 346.6663 15.31716928    17

Acompanhe STARLINK-4187 em tempo real com AllMySat

Download on the App Store